Le nostre stazioni meteo in Italia

Pubblicità
Il mio iltempo24.it
Uccle, Belgio (6447): Temperatura & dewpoint: 30.06.2020 02:00:00 - 06.07.2020 02:00:00 (CEST)Uccle, Belgio (6447): velocità del vento & gusts: 30.06.2020 02:00:00 - 06.07.2020 02:00:00 (CEST)Uccle, Belgio (6447): direzione del vento: 30.06.2020 02:00:00 - 06.07.2020 02:00:00 (CEST)Uccle, Belgio (6447): reduced air pressure: 30.06.2020 02:00:00 - 06.07.2020 02:00:00 (CEST)Uccle, Belgio (6447): ore di luce: 30.06.2020 02:00:00 - 06.07.2020 02:00:00 (CEST)Uccle, Belgio (6447): precipitazioni: 30.06.2020 02:00:00 - 06.07.2020 02:00:00 (CEST)
Data & Tempo tt [°C] td [°C] ff [km/h] ff [kn] fx [km/h] fx [kn] dd ppp [hPa] sd [min] rr [mm]
06.07.2020 02:00:00 - - - - - - - - - -
06.07.2020 01:00:00 13,3 8,8 19 11 45 24 OSO 1014,7 0 0,0
06.07.2020 00:00:00 14,1 8,2 20 11 40 21 OSO 1014,6 0 0,0
05.07.2020 23:00:00 15,0 8,5 20 11 48 26 O 1014,2 0 0,0
05.07.2020 22:00:00 16,0 8,4 27 15 51 28 O 1013,7 0 0,0
05.07.2020 21:00:00 17,6 10,2 24 13 62 33 O 1013,2 27 0,0
05.07.2020 20:00:00 19,5 11,6 29 16 66 35 OSO 1012,9 45 0,0
05.07.2020 19:00:00 21,1 13,2 34 19 69 38 O 1012,8 47 0,0
05.07.2020 18:00:00 22,2 14,1 24 13 61 33 O 1012,8 43 0,0
05.07.2020 17:00:00 22,5 15,4 24 13 55 30 O 1012,9 33 0,0
05.07.2020 16:00:00 20,7 16,1 25 13 57 31 OSO 1013,2 2 0,0
05.07.2020 15:00:00 20,2 16,5 23 12 47 26 OSO 1013,0 0 0,0
05.07.2020 14:00:00 18,9 16,4 22 12 50 27 OSO 1013,3 0 0,2
05.07.2020 13:00:00 18,2 16,7 22 12 46 25 OSO 1013,4 0 0,2
05.07.2020 12:00:00 18,4 16,8 18 10 53 28 OSO 1013,3 0 0,1
05.07.2020 11:00:00 18,7 16,1 23 12 46 25 OSO 1013,2 0 0,0
05.07.2020 10:00:00 19,2 15,4 23 12 49 27 OSO 1013,0 0 0,0
05.07.2020 09:00:00 18,4 15,7 22 12 50 27 SO 1013,0 0 0,0
05.07.2020 08:00:00 17,8 15,7 22 12 50 27 OSO 1013,1 0 0,0
05.07.2020 07:00:00 17,7 15,2 21 12 45 24 OSO 1012,8 0 0,0
05.07.2020 06:00:00 17,4 15,1 17 9 44 24 OSO 1013,0 0 0,0
05.07.2020 05:00:00 17,1 15,2 23 13 56 30 OSO 1013,1 0 0,0
05.07.2020 04:00:00 17,2 15,3 22 12 56 30 OSO 1013,4 0 0,0
05.07.2020 03:00:00 17,4 16,0 18 10 43 23 OSO 1013,6 0 0,1
05.07.2020 02:00:00 17,9 16,7 22 12 40 22 OSO 1014,0 0 0,5
05.07.2020 01:00:00 18,9 16,2 19 11 39 21 SO 1013,6 0 0,0
05.07.2020 00:00:00 18,8 16,1 20 11 40 22 SSO 1013,8 0 0,0
04.07.2020 23:00:00 18,7 16,2 19 10 42 23 SO 1014,0 0 0,0
04.07.2020 22:00:00 18,7 16,2 20 11 43 23 SO 1014,0 0 0,0
04.07.2020 21:00:00 19,4 15,9 23 12 46 25 SO 1014,3 0 0,0
04.07.2020 20:00:00 19,7 15,6 18 10 43 23 SO 1014,2 0 0,0
04.07.2020 19:00:00 19,8 15,3 18 10 41 22 SO 1014,7 0 0,0
04.07.2020 18:00:00 19,7 15,0 24 13 49 27 SO 1014,9 0 0,0
04.07.2020 17:00:00 19,7 14,4 21 11 49 26 SO 1015,2 0 0,0
04.07.2020 16:00:00 19,4 14,3 21 12 49 26 SO 1015,3 0 0,0
04.07.2020 15:00:00 19,0 14,0 24 13 44 24 SO 1015,5 0 0,0
04.07.2020 14:00:00 18,5 14,4 22 12 37 20 SSO 1015,7 0 0,0
04.07.2020 13:00:00 16,8 14,4 19 11 38 21 SSO 1016,2 0 0,1
04.07.2020 12:00:00 17,4 12,6 22 12 44 24 SO 1015,9 0 0,0
04.07.2020 11:00:00 17,7 12,3 18 10 39 21 SO 1015,9 3 0,0
04.07.2020 10:00:00 17,0 11,1 20 11 39 21 SO 1016,1 3 0,0
04.07.2020 09:00:00 16,9 10,7 18 10 40 21 SO 1016,0 0 0,0
04.07.2020 08:00:00 16,2 11,1 18 10 31 17 SO 1016,2 0 0,0
04.07.2020 07:00:00 15,8 10,4 17 9 30 16 SO 1016,4 0 0,0
04.07.2020 06:00:00 15,7 10,7 14 8 28 15 SO 1016,6 0 0,0
04.07.2020 05:00:00 15,3 10,9 12 7 25 14 SO 1016,8 0 0,0
04.07.2020 04:00:00 15,3 10,8 13 7 28 15 SO 1017,6 0 0,0
04.07.2020 03:00:00 15,1 10,5 14 7 27 15 SO 1017,8 0 0,0
04.07.2020 02:00:00 15,4 10,0 14 8 26 14 SO 1018,0 0 0,0
04.07.2020 01:00:00 15,0 9,7 9 5 20 11 SO 1018,5 0 0,0
04.07.2020 00:00:00 15,4 9,6 10 6 21 11 SO 1018,4 0 0,0
03.07.2020 23:00:00 16,1 9,3 10 5 28 15 OSO 1018,7 0 0,0
03.07.2020 22:00:00 17,3 9,2 16 8 34 19 O 1018,5 0 0,0
03.07.2020 21:00:00 19,0 8,9 17 9 40 21 O 1018,4 28 0,0
03.07.2020 20:00:00 20,1 9,3 25 14 46 25 O 1018,0 60 0,0
03.07.2020 19:00:00 21,0 9,8 20 11 47 26 OSO 1017,7 58 0,0
03.07.2020 18:00:00 21,0 10,2 21 11 43 23 O 1017,9 45 0,0
03.07.2020 17:00:00 20,8 11,0 22 12 37 20 OSO 1018,1 39 0,0
03.07.2020 16:00:00 21,1 13,0 18 10 39 21 SO 1018,4 31 0,0
03.07.2020 15:00:00 20,6 12,0 17 9 32 17 OSO 1018,3 9 0,0
03.07.2020 14:00:00 19,6 12,2 18 10 37 20 OSO 1018,7 9 0,0
03.07.2020 13:00:00 19,4 12,9 16 9 29 16 OSO 1018,6 18 0,0
03.07.2020 12:00:00 16,8 12,7 11 6 32 17 SO 1019,0 0 0,0
03.07.2020 11:00:00 16,5 12,8 13 7 28 15 OSO 1018,5 0 0,0
03.07.2020 10:00:00 15,3 12,3 12 6 24 13 SO 1018,5 0 0,0
03.07.2020 09:00:00 14,2 12,0 11 6 25 13 SO 1018,4 0 0,0
03.07.2020 08:00:00 13,8 11,6 11 6 19 11 SO 1018,2 0 0,0
03.07.2020 07:00:00 13,5 11,4 11 6 24 13 OSO 1017,9 0 0,0
03.07.2020 06:00:00 13,5 11,3 13 7 24 13 OSO 1017,6 0 0,0
03.07.2020 05:00:00 13,5 11,2 13 7 26 14 OSO 1017,0 0 0,0
03.07.2020 04:00:00 13,4 10,8 14 7 30 16 OSO 1017,0 0 0,0
03.07.2020 03:00:00 13,7 10,4 13 7 26 14 SO 1017,0 0 0,0
03.07.2020 02:00:00 13,3 9,8 11 6 23 12 OSO 1016,8 0 0,0
03.07.2020 01:00:00 13,7 9,4 11 6 22 12 SO 1016,4 0 0,0
03.07.2020 00:00:00 14,6 9,2 12 7 24 13 OSO 1016,2 0 0,0
02.07.2020 23:00:00 15,1 9,2 13 7 27 15 OSO 1015,8 0 0,0
02.07.2020 22:00:00 16,5 8,7 16 8 36 19 O 1015,1 0 0,0
02.07.2020 21:00:00 17,9 8,7 18 10 42 23 O 1014,4 23 0,0
02.07.2020 20:00:00 19,6 8,8 22 12 44 24 O 1013,7 48 0,0
02.07.2020 19:00:00 20,4 9,3 17 9 41 22 O 1013,2 47 0,0
02.07.2020 18:00:00 20,2 10,5 19 11 36 19 OSO 1012,9 19 0,0
02.07.2020 17:00:00 19,8 10,5 16 8 42 23 OSO 1012,9 20 0,0
02.07.2020 16:00:00 19,8 9,9 17 9 37 20 O 1012,6 14 0,0
02.07.2020 15:00:00 19,6 11,0 16 9 41 22 O 1012,5 5 0,0
02.07.2020 14:00:00 19,6 12,4 18 10 42 23 O 1012,1 28 0,0
02.07.2020 13:00:00 20,8 12,0 13 7 36 19 OSO 1011,6 45 0,0
02.07.2020 12:00:00 19,9 12,6 14 7 33 18 O 1011,6 25 0,0
02.07.2020 11:00:00 18,2 12,8 18 10 33 18 O 1011,5 25 0,0
02.07.2020 10:00:00 18,1 13,2 18 10 36 19 O 1011,0 26 0,0
02.07.2020 09:00:00 16,7 13,4 14 8 24 13 OSO 1010,8 10 0,0
02.07.2020 08:00:00 15,4 12,8 11 6 19 10 SO 1010,8 0 0,0
02.07.2020 07:00:00 15,2 12,2 9 5 23 13 SO 1010,8 0 0,0
02.07.2020 06:00:00 15,1 11,9 10 6 20 11 OSO 1010,5 0 0,0
02.07.2020 05:00:00 14,6 11,5 9 5 21 12 SO 1010,4 0 0,0
02.07.2020 04:00:00 14,5 11,7 9 5 18 10 SSO 1010,4 0 0,0
02.07.2020 03:00:00 14,0 11,5 9 5 16 9 SSO 1010,5 0 0,0
02.07.2020 02:00:00 14,2 10,9 7 4 23 12 OSO 1010,3 0 0,0
02.07.2020 01:00:00 14,6 11,2 11 6 25 13 OSO 1010,3 0 0,0
02.07.2020 00:00:00 15,2 11,2 10 6 24 13 OSO 1010,2 0 0,0
01.07.2020 23:00:00 16,1 11,4 12 7 29 15 O 1009,8 0 0,0
01.07.2020 22:00:00 17,7 11,4 15 8 32 17 O 1008,9 0 0,0
01.07.2020 21:00:00 18,9 12,3 16 9 35 19 OSO 1008,5 8 0,0
01.07.2020 20:00:00 19,9 13,4 18 10 35 19 O 1008,3 9 0,0
01.07.2020 19:00:00 19,7 14,8 14 8 33 18 OSO 1008,2 18 0,0
01.07.2020 18:00:00 20,2 15,6 16 8 34 19 SO 1008,3 24 0,0
01.07.2020 17:00:00 19,6 14,8 17 9 - - OSO 1008,3 0 0,0
01.07.2020 16:00:00 19,4 15,0 21 11 36 20 OSO 1008,0 1 0,0
01.07.2020 15:00:00 18,2 15,2 17 9 33 18 O 1008,3 0 0,0
01.07.2020 14:00:00 18,3 16,7 11 6 33 18 O 1007,8 2 0,2
01.07.2020 13:00:00 17,3 15,5 11 6 37 20 ONO 1007,6 0 0,7
01.07.2020 12:00:00 18,0 16,2 14 8 32 18 SO 1007,0 0 0,0
01.07.2020 11:00:00 17,5 15,9 18 10 34 18 SO 1006,9 0 0,0
01.07.2020 10:00:00 17,3 16,2 15 8 36 19 SO 1006,9 0 0,0
01.07.2020 09:00:00 17,0 16,0 16 9 39 21 SO 1007,0 0 1,1
01.07.2020 08:00:00 16,6 15,6 14 8 32 17 SSO 1006,8 0 5,7
01.07.2020 07:00:00 16,7 15,7 16 9 30 16 SSO 1006,8 0 1,7
01.07.2020 06:00:00 16,5 15,6 5 3 18 10 OSO 1007,1 0 6,6
01.07.2020 05:00:00 16,7 15,7 9 5 29 16 SO 1007,5 0 2,6
01.07.2020 04:00:00 16,9 15,9 12 6 28 15 SO 1007,6 0 4,2
01.07.2020 03:00:00 16,9 16,0 10 6 24 13 SO 1008,1 0 1,1
01.07.2020 02:00:00 17,0 16,0 11 6 24 13 SO 1008,6 0 4,8
01.07.2020 01:00:00 17,0 16,0 10 5 21 12 SO 1009,1 0 4,1
01.07.2020 00:00:00 17,1 15,8 9 5 26 14 SSO 1008,8 0 0,0
30.06.2020 23:00:00 16,8 15,6 13 7 25 13 SO 1009,3 0 0,0
30.06.2020 22:00:00 16,7 15,5 12 6 29 15 SO 1009,2 0 0,2
30.06.2020 21:00:00 16,8 15,4 14 8 33 18 SSO 1009,1 0 0,4
30.06.2020 20:00:00 17,5 14,7 18 10 31 17 SSO 1009,3 0 0,1
30.06.2020 19:00:00 17,4 14,7 11 6 37 20 SO 1009,3 0 0,3
30.06.2020 18:00:00 18,5 13,7 17 9 37 20 OSO 1009,4 0 0,2
30.06.2020 17:00:00 19,3 12,6 18 10 47 25 SO 1009,7 0 0,0
30.06.2020 16:00:00 19,2 12,4 17 9 40 21 OSO 1010,0 0 0,0
30.06.2020 15:00:00 19,0 11,7 19 11 41 22 SO 1010,1 0 0,0
30.06.2020 14:00:00 18,4 10,9 18 10 43 23 SO 1010,6 0 0,0
30.06.2020 13:00:00 18,6 10,0 18 10 38 20 SO 1010,8 0 0,0
30.06.2020 12:00:00 18,6 9,9 21 11 42 23 SO 1010,9 25 0,0
30.06.2020 11:00:00 17,4 10,0 16 9 40 22 SO 1010,9 2 0,0
30.06.2020 10:00:00 16,3 10,1 19 10 36 20 OSO 1011,3 9 0,0
30.06.2020 09:00:00 15,3 9,7 12 7 31 17 SO 1011,4 1 0,0
30.06.2020 08:00:00 14,8 9,6 14 8 35 19 SO 1011,4 15 0,0
30.06.2020 07:00:00 13,5 9,1 16 9 36 19 OSO 1011,7 0 0,0
30.06.2020 06:00:00 13,1 8,7 17 9 36 19 SO 1011,6 0 0,0
30.06.2020 05:00:00 12,6 8,6 16 9 33 18 SO 1011,6 0 0,0
30.06.2020 04:00:00 12,4 8,6 14 8 31 17 OSO 1011,7 0 0,0
30.06.2020 03:00:00 12,6 8,1 14 8 29 15 OSO 1012,0 0 0,0
30.06.2020 02:00:00 13,3 7,7 18 10 30 16 OSO 1012,2 0 0,0

tt = Temperatura
td = dewpoint
ff = velocità del vento
fx = gusts
dd = direzione del vento
ppp = reduced air pressure
sd = ore di luce
rr = precipitazioni

Stazioni seguenti

WeatherPro
AMSI
MeteoEarth